Grosse Ile, MI

6:17 AM EDT on July 27, 2017 (GMT -0400)
Grosse Ile Municipal

Weather History for KONZ - June, 2013

Change the Weather History Date:

Tuesday, June 11, 2013

  Actual Average (KDTW) Record (KDTW)
Temperature  
Mean Temperature 72 °F -  
Max Temperature 82 °F 78 °F 97 °F (1933)
Min Temperature 62 °F 55 °F 36 °F (1972)
Cooling Degree Days 7    
Growing Degree Days 22 (Base 50)    
Moisture  
Dew Point 63 °F    
Average Humidity 76    
Maximum Humidity 94    
Minimum Humidity 48    
Precipitation  
Precipitation 0.00 in - - ()
Sea Level Pressure  
Sea Level Pressure 29.83 in    
Wind  
Wind Speed 4 mph (WNW)    
Max Wind Speed 13 mph    
Max Gust Speed -    
Visibility 7 miles    
Events Fog    
Averages and records for this station are not official NWS values.
T = Trace of Precipitation, MM = Missing Value Source: NWS Daily Summary

Daily Weather History Graph

Daily Weather History Graph

Search for Another Location

Airport or City:

Trip Planner

Search our weather history database for the weather conditions in past years. The results will help you decide how hot, cold, wet, or windy it might be!

Date:

Astronomy

Jun. 11, 2013 Rise Set
Actual Time 5:56 AM EDT 9:08 PM EDT
Civil Twilight 5:21 AM EDT 9:43 PM EDT
Nautical Twilight 4:37 AM EDT 10:27 PM EDT
Astronomical Twilight 3:44 AM EDT 11:20 PM EDT
Moon 8:40 AM EDT (6/11) 11:08 PM EDT (6/11)
Length of Visible Light 16h 21m
Length of Day
15h 12m
Waxing Crescent, 8% of the Moon is Illuminated
Jun 11
Waxing Crescent
Jun 16
First Quarter
Jun 23
Full
Jun 30
Last Quarter
Jul 8
New

Hourly Weather History & Observations

Time (EDT) Temp. Heat Index Dew Point Humidity Pressure Visibility Wind Dir Wind Speed Gust Speed Precip Events Conditions
12:14 AM 64.4 °F - 62.6 °F 94% 29.76 in 1.0 mi Calm Calm - N/A   Mostly Cloudy
12:34 AM 64.4 °F - 62.6 °F 94% 29.77 in 0.8 mi Calm Calm - N/A   Mostly Cloudy
12:54 AM 62.6 °F - 60.8 °F 94% 29.76 in 0.5 mi Calm Calm - N/A Fog Fog
1:14 AM 64.4 °F - 62.6 °F 94% 29.77 in 2.0 mi Calm Calm - N/A   Overcast
1:34 AM 64.4 °F - 62.6 °F 94% 29.77 in 2.0 mi Calm Calm - N/A   Overcast
1:54 AM 64.4 °F - 62.6 °F 94% 29.77 in 2.0 mi Calm Calm - N/A   Overcast
2:14 AM 64.4 °F - 62.6 °F 94% 29.77 in 2.0 mi Calm Calm - N/A   Overcast
2:34 AM 64.4 °F - 62.6 °F 94% 29.77 in 2.0 mi Calm Calm - N/A   Mostly Cloudy
2:54 AM 64.4 °F - 62.6 °F 94% 29.77 in 2.0 mi Calm Calm - N/A   Overcast
3:14 AM 64.4 °F - 62.6 °F 94% 29.77 in 2.5 mi WNW 4.6 mph - N/A   Mostly Cloudy
3:35 AM 64.4 °F - 62.6 °F 94% 29.78 in 2.0 mi WNW 5.8 mph - N/A   Mostly Cloudy
3:54 AM 64.4 °F - 62.6 °F 94% 29.79 in 2.5 mi WNW 5.8 mph - N/A   Mostly Cloudy
4:14 AM 64.4 °F - 62.6 °F 94% 29.79 in 4.0 mi NW 5.8 mph - N/A   Overcast
4:35 AM 64.4 °F - 62.6 °F 94% 29.79 in 5.0 mi NW 4.6 mph - N/A   Overcast
4:54 AM 64.4 °F - 62.6 °F 94% 29.80 in 5.0 mi NW 8.1 mph - N/A   Overcast
5:14 AM 64.4 °F - 62.6 °F 94% 29.80 in 5.0 mi WNW 5.8 mph - N/A   Overcast
5:35 AM 64.4 °F - 62.6 °F 94% 29.81 in 5.0 mi WNW 6.9 mph - N/A   Overcast
5:54 AM 64.4 °F - 62.6 °F 94% 29.82 in 5.0 mi WNW 5.8 mph - N/A   Overcast
6:14 AM 64.4 °F - 62.6 °F 94% 29.83 in 5.0 mi WNW 5.8 mph - N/A   Overcast
6:34 AM 64.4 °F - 62.6 °F 94% 29.84 in 5.0 mi WNW 3.5 mph - N/A   Overcast
6:54 AM 64.4 °F - 62.6 °F 94% 29.84 in 4.0 mi WNW 3.5 mph - N/A   Overcast
7:14 AM 64.4 °F - 62.6 °F 94% 29.85 in 4.0 mi WNW 4.6 mph - N/A   Overcast
7:34 AM 66.2 °F - 62.6 °F 88% 29.86 in 4.0 mi WNW 5.8 mph - N/A   Mostly Cloudy
7:54 AM 66.2 °F - 62.6 °F 88% 29.85 in 5.0 mi WNW 5.8 mph - N/A   Overcast
8:14 AM 66.2 °F - 62.6 °F 88% 29.86 in 5.0 mi WNW 4.6 mph - N/A   Overcast
8:34 AM 66.2 °F - 62.6 °F 88% 29.87 in 5.0 mi WNW 4.6 mph - N/A   Overcast
8:54 AM 66.2 °F - 62.6 °F 88% 29.87 in 7.0 mi West 8.1 mph - N/A   Overcast
9:15 AM 68.0 °F - 62.6 °F 83% 29.87 in 7.0 mi West 6.9 mph - N/A   Overcast
9:34 AM 69.8 °F - 64.4 °F 83% 29.87 in 7.0 mi West 5.8 mph - N/A   Overcast
9:54 AM 69.8 °F - 64.4 °F 83% 29.87 in 7.0 mi WNW 5.8 mph - N/A   Overcast
10:15 AM 69.8 °F - 64.4 °F 83% 29.87 in 7.0 mi West 6.9 mph - N/A   Overcast
10:34 AM 71.6 °F - 64.4 °F 78% 29.87 in 10.0 mi NW 5.8 mph - N/A   Overcast
10:54 AM 71.6 °F - 64.4 °F 78% 29.88 in 10.0 mi WNW 8.1 mph - N/A   Overcast
11:15 AM 73.4 °F - 64.4 °F 73% 29.87 in 10.0 mi West 8.1 mph - N/A   Scattered Clouds
11:34 AM 73.4 °F - 64.4 °F 73% 29.88 in 10.0 mi WNW 9.2 mph - N/A   Mostly Cloudy
11:54 AM 73.4 °F - 64.4 °F 73% 29.88 in 10.0 mi West 9.2 mph - N/A   Mostly Cloudy
12:14 PM 75.2 °F - 64.4 °F 69% 29.88 in 10.0 mi WNW 9.2 mph - N/A   Mostly Cloudy
12:34 PM 75.2 °F - 64.4 °F 69% 29.88 in 10.0 mi West 9.2 mph - N/A   Scattered Clouds
12:54 PM 77.0 °F - 62.6 °F 61% 29.88 in 10.0 mi WNW 8.1 mph - N/A   Scattered Clouds
1:14 PM 78.8 °F - 64.4 °F 61% 29.88 in 10.0 mi WNW 12.7 mph - N/A   Scattered Clouds
1:34 PM 77.0 °F - 62.6 °F 61% 29.88 in 10.0 mi West 8.1 mph - N/A   Scattered Clouds
1:54 PM 78.8 °F - 62.6 °F 57% 29.87 in 10.0 mi West 11.5 mph - N/A   Scattered Clouds
2:14 PM 78.8 °F - 62.6 °F 57% 29.87 in 10.0 mi WNW 8.1 mph - N/A   Scattered Clouds
2:34 PM 78.8 °F - 62.6 °F 57% 29.87 in 10.0 mi WNW 9.2 mph - N/A   Scattered Clouds
2:54 PM 78.8 °F - 62.6 °F 57% 29.86 in 10.0 mi West 4.6 mph - N/A   Scattered Clouds
3:14 PM 80.6 °F 81.5 °F 60.8 °F 51% 29.86 in 10.0 mi WNW 9.2 mph - N/A   Scattered Clouds
3:34 PM 80.6 °F 81.8 °F 62.6 °F 54% 29.86 in 10.0 mi West 9.2 mph - N/A   Clear
3:54 PM 80.6 °F 81.8 °F 62.6 °F 54% 29.85 in 10.0 mi WNW 8.1 mph - N/A   Clear
4:14 PM 80.6 °F 81.8 °F 62.6 °F 54% 29.85 in 10.0 mi WSW 9.2 mph - N/A   Scattered Clouds
4:34 PM 80.6 °F 81.8 °F 62.6 °F 54% 29.85 in 10.0 mi West 9.2 mph - N/A   Clear
4:54 PM 82.4 °F 82.9 °F 60.8 °F 48% 29.84 in 10.0 mi West 9.2 mph - N/A   Clear
5:14 PM 82.4 °F 83.4 °F 62.6 °F 51% 29.84 in 10.0 mi WSW 8.1 mph - N/A   Clear
5:35 PM 82.4 °F 82.9 °F 60.8 °F 48% 29.84 in 10.0 mi West 8.1 mph - N/A   Clear
5:54 PM 82.4 °F 83.4 °F 62.6 °F 51% 29.84 in 10.0 mi West 5.8 mph - N/A   Clear
6:14 PM 80.6 °F 81.8 °F 62.6 °F 54% 29.83 in 10.0 mi West 6.9 mph - N/A   Scattered Clouds
6:35 PM 80.6 °F 81.8 °F 62.6 °F 54% 29.82 in 10.0 mi West 4.6 mph - N/A   Mostly Cloudy
6:54 PM 80.6 °F 81.8 °F 62.6 °F 54% 29.83 in 10.0 mi West 5.8 mph - N/A   Scattered Clouds
7:14 PM 80.6 °F 81.8 °F 62.6 °F 54% 29.82 in 10.0 mi West 4.6 mph - N/A   Clear
7:34 PM 80.6 °F 81.8 °F 62.6 °F 54% 29.83 in 10.0 mi West 4.6 mph - N/A   Clear
7:54 PM 78.8 °F - 62.6 °F 57% 29.83 in 10.0 mi West 3.5 mph - N/A   Clear
8:14 PM 78.8 °F - 62.6 °F 57% 29.83 in 10.0 mi Calm Calm - N/A   Clear
8:34 PM 78.8 °F - 64.4 °F 61% 29.82 in 10.0 mi Calm Calm - N/A   Clear
8:54 PM 77.0 °F - 64.4 °F 65% 29.83 in 10.0 mi Calm Calm - N/A   Clear
9:14 PM 77.0 °F - 64.4 °F 65% 29.82 in 10.0 mi Calm Calm - N/A   Mostly Cloudy
9:34 PM 75.2 °F - 66.2 °F 73% 29.83 in 10.0 mi Calm Calm - N/A   Mostly Cloudy
9:54 PM 73.4 °F - 66.2 °F 78% 29.83 in 10.0 mi Calm Calm - N/A   Scattered Clouds
10:14 PM 73.4 °F - 66.2 °F 78% 29.84 in 7.0 mi Calm Calm - N/A   Scattered Clouds
10:34 PM 73.4 °F - 66.2 °F 78% 29.85 in 10.0 mi Calm Calm - N/A   Mostly Cloudy
10:54 PM 71.6 °F - 66.2 °F 83% 29.85 in 10.0 mi Calm Calm - N/A   Mostly Cloudy
11:14 PM 69.8 °F - 64.4 °F 83% 29.84 in 10.0 mi South 3.5 mph - N/A   Scattered Clouds
11:34 PM 69.8 °F - 64.4 °F 83% 29.85 in 7.0 mi Calm Calm - N/A   Mostly Cloudy
11:54 PM 71.6 °F - 64.4 °F 78% 29.85 in 10.0 mi Calm Calm - N/A   Scattered Clouds